CW3175 Weather Reports


time (UTC)temp
F
wind
direction
speed
knots
gust
knots
rain 1hr
in
rain 24hr
in
rain mn
in
humidity
%
barometer
mb
20160503103133 44 67 0.0 0.0 0.00 0.00 0.00 76 1013.2
20160503101633 44 67 0.0 0.0 0.00 0.00 0.00 76 1013.3
20160503100132 44 67 0.0 0.0 0.00 0.00 0.00 77 1013.2
20160503094620 44 67 0.0 0.0 0.00 0.00 0.00 77 1013.2
20160503093115 43 67 0.0 0.0 0.00 0.00 0.00 78 1013.3
20160503091606 44 67 0.0 0.0 0.00 0.00 0.00 78 1013.3
20160503090101 44 67 0.0 0.0 0.00 0.00 0.00 77 1013.3
20160503084547 44 67 0.0 0.0 0.00 0.00 0.00 77 1013.3
20160503083043 44 67 0.0 0.0 0.00 0.00 0.00 76 1013.4
20160503081534 44 67 0.0 0.0 0.00 0.00 0.00 75 1013.4
20160503080025 44 67 0.0 0.0 0.00 0.00 0.00 75 1013.4
20160503074507 45 67 0.0 0.0 0.00 0.00 0.00 73 1013.4
20160503073003 45 67 0.0 0.0 0.00 0.00 0.00 74 1013.7
20160503071503 45 67 0.0 0.0 0.00 0.00 0.00 73 1013.9
20160503065948 45 67 0.0 0.0 0.00 0.00 0.00 74 1014.0
20160503064445 45 67 0.0 0.0 0.00 0.00 0.00 73 1014.1
20160503062941 46 67 0.0 0.0 0.00 0.00 0.00 73 1014.1
20160503061427 46 67 0.0 0.0 0.00 0.00 0.00 71 1014.2
20160503061410 46 67 0.0 0.0 0.00 0.00 0.00 71 1014.3
20160503054353 47 67 0.0 0.0 0.00 0.00 0.00 69 1014.3
20160503052852 47 67 0.0 0.0 0.00 0.00 0.00 68 1014.4
20160503051341 47 67 0.0 0.0 0.00 0.00 0.00 67 1014.3
20160503045829 47 67 0.0 0.0 0.00 0.00 0.00 66 1014.4
20160503044317 47 67 0.0 0.0 0.00 0.00 0.00 65 1014.5
20160503042814 48 67 0.0 0.0 0.00 0.00 0.00 64 1014.6
20160503041309 48 67 0.0 0.0 0.00 0.00 0.00 63 1014.6
20160503035800 48 67 0.0 0.0 0.00 0.00 0.00 63 1014.7
20160503034256 48 67 0.0 0.0 0.00 0.00 0.00 61 1014.7
20160503032750 49 67 0.0 0.0 0.00 0.00 0.00 58 1014.9
20160503031246 49 67 0.0 0.0 0.00 0.00 0.00 56 1015.0
20160503031237 50 67 0.0 0.0 0.00 0.00 0.00 54 1015.0
20160503024227 50 67 0.0 0.0 0.00 0.00 0.00 53 1015.1
20160503022714 50 67 0.0 0.0 0.00 0.02 0.00 52 1015.0
20160503022705 50 67 0.0 0.0 0.00 0.16 0.00 54 1015.0
20160503015630 50 67 0.0 0.0 0.00 0.16 0.00 54 1015.0
20160503014130 50 66 0.0 0.0 0.00 0.16 0.00 52 1014.9
20160503012625 51 66 0.0 5.2 0.00 0.21 0.00 51 1015.0
20160503011114 51 41 0.9 6.1 0.00 0.29 0.00 50 1015.0
20160503005610 51 67 0.0 6.1 0.00 0.33 0.00 51 1015.0
20160503004101 52 52 0.0 4.3 0.00 0.35 0.00 49 1015.0
20160503004056 51 40 0.9 6.1 0.00 0.35 0.00 49 1015.0
20160503001054 52 59 2.6 8.7 0.00 0.35 0.00 47 1015.0
20160502235540 53 37 1.7 7.0 0.00 0.35 0.35 46 1015.0
20160502234028 53 40 4.3 8.7 0.00 0.36 0.35 44 1014.9
20160502232526 53 26 3.5 9.6 0.00 0.36 0.35 43 1015.0
20160502230959 53 30 3.5 9.6 0.00 0.36 0.35 42 1015.0
20160502225458 54 38 4.3 12.2 0.00 0.36 0.35 42 1015.0
20160502224002 54 22 4.3 11.3 0.00 0.36 0.35 42 1015.0
20160502223958 53 59 5.2 11.3 0.00 0.36 0.35 42 1015.0
20160502222455 54 71 4.3 11.3 0.00 0.36 0.35 42 1015.0
20160502215454 54 45 6.1 13.9 0.00 0.36 0.35 42 1015.1
20160502213951 55 28 6.1 13.9 0.00 0.36 0.35 40 1015.1
20160502212455 55 19 6.1 12.2 0.00 0.36 0.35 40 1015.5
20160502212451 54 50 7.0 14.8 0.00 0.36 0.35 40 1015.3
20160502205449 55 30 5.2 13.0 0.00 0.36 0.35 42 1015.6
20160502203948 55 49 6.1 11.3 0.00 0.36 0.35 43 1015.7
20160502202442 55 27 5.2 13.0 0.00 0.36 0.35 42 1015.9
20160502200940 55 32 6.1 13.9 0.00 0.36 0.35 45 1015.9
20160502195437 55 24 5.2 11.3 0.00 0.36 0.35 45 1016.1
20160502193937 55 27 5.2 10.4 0.00 0.36 0.35 44 1016.1
20160502192437 55 43 5.2 11.3 0.00 0.36 0.35 46 1016.4
20160502190936 54 27 6.1 13.0 0.00 0.36 0.35 46 1016.3
20160502185432 53 65 7.0 13.9 0.00 0.36 0.35 48 1016.4
20160502183937 54 24 6.1 12.2 0.00 0.36 0.35 45 1016.4
20160502183933 54 26 5.2 10.4 0.00 0.36 0.35 45 1016.5
20160502180932 54 9 5.2 13.0 0.00 0.36 0.35 47 1016.4
20160502175424 54 80 6.1 13.9 0.00 0.36 0.35 48 1016.4
20160502173923 54 57 4.3 11.3 0.00 0.36 0.35 48 1016.5
20160502172418 53 38 6.1 13.0 0.00 0.36 0.35 49 1016.3
20160502170919 53 0 6.1 11.3 0.00 0.36 0.35 50 1016.2
20160502165423 52 36 6.1 14.8 0.00 0.36 0.35 53 1016.1
20160502165419 53 62 5.2 12.2 0.00 0.36 0.35 52 1016.2
20160502164109 51 34 7.0 15.6 0.00 0.36 0.35 56 1016.1
20160502160916 50 46 7.8 14.8 0.00 0.36 0.35 57 1016.1
20160502155421 51 44 7.0 13.9 0.00 0.36 0.35 58 1016.1
20160502155417 52 21 7.0 13.9 0.00 0.36 0.35 56 1016.1
20160502152411 50 31 7.8 15.6 0.00 0.36 0.35 58 1016.2
20160502150914 51 350 5.2 13.9 0.00 0.36 0.35 58 1016.8
20160502150910 51 346 8.7 16.5 0.00 0.36 0.35 58 1016.3
20160502143908 50 63 6.1 13.9 0.00 0.36 0.35 62 1016.7
20160502142407 49 0 7.0 13.9 0.00 0.36 0.35 63 1016.6
20160502140909 49 43 6.1 16.5 0.00 0.36 0.35 66 1016.2
20160502135406 49 41 8.7 16.5 0.00 0.36 0.35 65 1016.2
20160502135401 49 24 7.8 15.6 0.00 0.36 0.35 66 1016.1
20160502132358 49 37 7.0 16.5 0.00 0.36 0.35 62 1016.2
20160502130900 48 37 7.0 17.4 0.00 0.36 0.35 64 1016.1
20160502130856 49 14 5.2 12.2 0.00 0.36 0.35 65 1016.1
20160502123856 48 38 6.1 15.6 0.00 0.36 0.35 64 1016.2
20160502122355 48 42 6.1 16.5 0.00 0.36 0.35 65 1016.2
20160502120851 48 56 6.1 15.6 0.00 0.36 0.35 65 1016.0
20160502115355 48 351 7.0 13.0 0.00 0.36 0.35 65 1015.7
20160502115351 48 9 7.0 13.9 0.00 0.36 0.35 65 1015.8
20160502112348 47 340 7.0 14.8 0.00 0.36 0.35 66 1015.6
20160502110847 47 10 6.1 13.9 0.00 0.36 0.35 68 1015.6
20160502105347 46 30 6.1 13.9 0.00 0.36 0.35 73 1015.5
20160502103847 46 14 6.1 12.2 0.00 0.36 0.35 73 1015.6